| time (UTC) | temp F | wind direction | speed MPH | gust MPH | rain 1hr in | rain 24hr in | rain mn in | humidity % | barometer mb |
| 20260902173302 | 65 | 270 | 0.0 | 2.0 | 0.00 | 0.00 | 0.00 | 84 | 1024.1 |
| 20260902173002 | 64 | 270 | 0.0 | 0.0 | 0.00 | 0.00 | 0.00 | 86 | 1023.7 |
| 20260902172802 | 65 | 270 | 0.0 | 1.0 | 0.00 | 0.00 | 0.00 | 86 | 1024.1 |
| 20260902172301 | 65 | 270 | 0.0 | 1.0 | 0.00 | 0.00 | 0.00 | 84 | 1024.1 |
| 20260902171800 | 65 | 270 | 0.0 | 1.0 | 0.00 | 0.00 | 0.00 | 84 | 1024.0 |
| 20260902171604 | 64 | 270 | 0.0 | 1.0 | 0.00 | 0.00 | 0.00 | 83 | 1023.6 |
| 20260902171301 | 65 | 270 | 0.0 | 1.0 | 0.00 | 0.00 | 0.00 | 84 | 1024.0 |
| 20260902170259 | 65 | 270 | 0.0 | 1.0 | 0.00 | 0.00 | 0.00 | 83 | 1023.9 |
| 20260902170002 | 64 | 270 | 0.0 | 2.0 | 0.00 | 0.00 | 0.00 | 83 | 1023.6 |
| 20260902165758 | 65 | 270 | 0.0 | 2.0 | 0.00 | 0.00 | 0.00 | 83 | 1024.0 |
| 20260902165258 | 65 | 270 | 0.0 | 3.0 | 0.00 | 0.00 | 0.00 | 82 | 1024.0 |
| 20260902164609 | 65 | 270 | 0.0 | 3.0 | 0.00 | 0.00 | 0.00 | 82 | 1023.6 |
| 20260902164252 | 65 | 270 | 0.0 | 3.0 | 0.00 | 0.00 | 0.00 | 82 | 1024.0 |
| 20260902163745 | 65 | 270 | 0.0 | 3.0 | 0.00 | 0.00 | 0.00 | 81 | 1023.9 |
| 20260902163238 | 65 | 270 | 0.0 | 3.0 | 0.00 | 0.00 | 0.00 | 82 | 1024.0 |
| 20260902163003 | 65 | 270 | 0.0 | 3.0 | 0.00 | 0.00 | 0.00 | 81 | 1023.7 |
| 20260902162739 | 65 | 270 | 0.0 | 3.0 | 0.00 | 0.00 | 0.00 | 81 | 1024.2 |
| 20260902162239 | 65 | 270 | 0.0 | 1.0 | 0.00 | 0.00 | 0.00 | 82 | 1024.4 |
| 20260902161740 | 65 | 270 | 0.0 | 2.0 | 0.00 | 0.00 | 0.00 | 82 | 1024.5 |
| 20260902161605 | 65 | 270 | 0.0 | 2.0 | 0.00 | 0.00 | 0.00 | 82 | 1024.1 |
| 20260902161236 | 65 | 270 | 0.0 | 2.0 | 0.00 | 0.00 | 0.00 | 81 | 1024.5 |
| 20260902160738 | 65 | 270 | 0.0 | 3.0 | 0.00 | 0.00 | 0.00 | 82 | 1024.5 |
| 20260902160235 | 65 | 270 | 0.0 | 3.0 | 0.00 | 0.00 | 0.00 | 81 | 1024.6 |
| 20260902160157 | 64 | 270 | 0.0 | 3.0 | 0.00 | 0.00 | 0.00 | 82 | 1024.2 |
| 20260902155736 | 65 | 270 | 1.0 | 3.0 | 0.00 | 0.00 | 0.00 | 82 | 1024.6 |
| 20260902155233 | 65 | 270 | 1.0 | 4.0 | 0.00 | 0.00 | 0.00 | 81 | 1024.6 |
| 20260902154554 | 64 | 270 | 0.0 | 5.0 | 0.00 | 0.00 | 0.00 | 82 | 1024.3 |
| 20260902154501 | 64 | 270 | 0.0 | 5.0 | 0.00 | 0.00 | 0.00 | 83 | 1024.3 |
| 20260902153732 | 65 | 270 | 1.0 | 4.0 | 0.00 | 0.00 | 0.00 | 81 | 1024.7 |
| 20260902153150 | 64 | 270 | 0.0 | 5.0 | 0.00 | 0.00 | 0.00 | 81 | 1024.3 |
| 20260902152728 | 65 | 270 | 1.0 | 5.0 | 0.00 | 0.00 | 0.00 | 82 | 1024.6 |
| 20260902152229 | 64 | 270 | 1.0 | 5.0 | 0.00 | 0.00 | 0.00 | 82 | 1024.6 |
| 20260902151731 | 65 | 270 | 1.0 | 6.0 | 0.00 | 0.00 | 0.00 | 83 | 1024.6 |
| 20260902151553 | 64 | 270 | 1.0 | 6.0 | 0.00 | 0.00 | 0.00 | 81 | 1024.2 |
| 20260902151230 | 65 | 270 | 1.0 | 6.0 | 0.00 | 0.00 | 0.00 | 81 | 1024.5 |
| 20260902150728 | 65 | 270 | 1.0 | 5.0 | 0.00 | 0.00 | 0.00 | 84 | 1024.4 |
| 20260902150148 | 64 | 270 | 1.0 | 4.0 | 0.00 | 0.00 | 0.00 | 83 | 1024.0 |
| 20260902145729 | 64 | 270 | 1.0 | 5.0 | 0.00 | 0.00 | 0.00 | 84 | 1024.4 |
| 20260902145231 | 64 | 270 | 1.0 | 6.0 | 0.00 | 0.00 | 0.00 | 85 | 1024.4 |
| 20260902144729 | 63 | 270 | 1.0 | 6.0 | 0.00 | 0.00 | 0.00 | 87 | 1024.3 |
| 20260902144549 | 62 | 270 | 0.0 | 3.0 | 0.00 | 0.00 | 0.00 | 88 | 1024.0 |
| 20260902144230 | 62 | 270 | 1.0 | 4.0 | 0.00 | 0.00 | 0.00 | 88 | 1024.4 |
| 20260902143729 | 62 | 270 | 2.0 | 4.0 | 0.00 | 0.00 | 0.00 | 89 | 1024.4 |
| 20260902143230 | 62 | 270 | 1.0 | 4.0 | 0.00 | 0.00 | 0.00 | 89 | 1024.5 |
| 20260902143143 | 62 | 270 | 2.0 | 4.0 | 0.00 | 0.00 | 0.00 | 89 | 1024.1 |
| 20260902142731 | 63 | 270 | 1.0 | 4.0 | 0.00 | 0.00 | 0.00 | 89 | 1024.5 |
| 20260902142230 | 63 | 270 | 1.0 | 4.0 | 0.00 | 0.00 | 0.00 | 89 | 1024.4 |
| 20260902141731 | 63 | 270 | 1.0 | 5.0 | 0.00 | 0.00 | 0.00 | 88 | 1024.4 |
| 20260902141542 | 62 | 270 | 1.0 | 5.0 | 0.00 | 0.00 | 0.00 | 88 | 1024.0 |
| 20260902141230 | 63 | 270 | 1.0 | 5.0 | 0.00 | 0.00 | 0.00 | 88 | 1024.3 |
| 20260902140730 | 63 | 270 | 0.0 | 3.0 | 0.00 | 0.00 | 0.00 | 89 | 1024.3 |
| 20260902140229 | 63 | 270 | 0.0 | 2.0 | 0.00 | 0.00 | 0.00 | 88 | 1024.3 |
| 20260902140139 | 63 | 270 | 0.0 | 2.0 | 0.00 | 0.00 | 0.00 | 88 | 1023.9 |
| 20260902135729 | 63 | 270 | 0.0 | 3.0 | 0.00 | 0.00 | 0.00 | 88 | 1024.3 |
| 20260902135228 | 63 | 270 | 1.0 | 6.0 | 0.00 | 0.00 | 0.00 | 89 | 1024.2 |
| 20260902134730 | 62 | 270 | 1.0 | 6.0 | 0.00 | 0.00 | 0.00 | 88 | 1024.2 |
| 20260902134540 | 62 | 270 | 0.0 | 6.0 | 0.00 | 0.00 | 0.00 | 89 | 1023.7 |
| 20260902134228 | 62 | 270 | 1.0 | 5.0 | 0.00 | 0.00 | 0.00 | 88 | 1024.0 |
| 20260902133729 | 63 | 270 | 0.0 | 2.0 | 0.00 | 0.00 | 0.00 | 90 | 1024.1 |
| 20260902133229 | 62 | 270 | 0.0 | 2.0 | 0.00 | 0.00 | 0.00 | 90 | 1024.0 |
| 20260902133143 | 62 | 270 | 0.0 | 2.0 | 0.00 | 0.00 | 0.00 | 90 | 1023.7 |
| 20260902132729 | 62 | 270 | 0.0 | 2.0 | 0.00 | 0.00 | 0.00 | 90 | 1024.0 |
| 20260902132230 | 62 | 270 | 0.0 | 2.0 | 0.00 | 0.00 | 0.00 | 90 | 1024.0 |
| 20260902131729 | 62 | 270 | 0.0 | 2.0 | 0.00 | 0.00 | 0.00 | 91 | 1024.1 |
| 20260902131538 | 61 | 270 | 0.0 | 2.0 | 0.00 | 0.00 | 0.00 | 92 | 1023.8 |
| 20260902131231 | 62 | 270 | 0.0 | 2.0 | 0.00 | 0.00 | 0.00 | 91 | 1024.1 |
| 20260902130231 | 61 | 270 | 0.0 | 2.0 | 0.00 | 0.00 | 0.00 | 92 | 1024.1 |
| 20260902130126 | 61 | 270 | 0.0 | 2.0 | 0.00 | 0.00 | 0.00 | 92 | 1023.7 |
| 20260902125730 | 61 | 270 | 0.0 | 3.0 | 0.00 | 0.00 | 0.00 | 92 | 1024.2 |
| 20260902125231 | 61 | 270 | 0.0 | 3.0 | 0.00 | 0.00 | 0.00 | 92 | 1024.1 |
| 20260902124729 | 61 | 270 | 0.0 | 3.0 | 0.00 | 0.00 | 0.00 | 93 | 1024.2 |
| 20260902124514 | 61 | 270 | 0.0 | 3.0 | 0.00 | 0.00 | 0.00 | 93 | 1023.8 |
| 20260902124229 | 61 | 270 | 1.0 | 3.0 | 0.00 | 0.00 | 0.00 | 93 | 1024.1 |
| 20260902123730 | 61 | 270 | 1.0 | 3.0 | 0.00 | 0.00 | 0.00 | 92 | 1024.0 |
| 20260902123229 | 61 | 270 | 0.0 | 2.0 | 0.00 | 0.00 | 0.00 | 93 | 1023.9 |
| 20260902123105 | 61 | 270 | 0.0 | 2.0 | 0.00 | 0.00 | 0.00 | 93 | 1023.6 |
| 20260902122729 | 61 | 270 | 0.0 | 2.0 | 0.00 | 0.00 | 0.00 | 93 | 1023.9 |
| 20260902122231 | 61 | 270 | 0.0 | 2.0 | 0.00 | 0.00 | 0.00 | 93 | 1023.9 |
| 20260902121728 | 60 | 270 | 0.0 | 2.0 | 0.00 | 0.00 | 0.00 | 93 | 1024.0 |
| 20260902121516 | 60 | 270 | 0.0 | 2.0 | 0.00 | 0.00 | 0.00 | 94 | 1023.8 |
| 20260902120731 | 60 | 270 | 0.0 | 0.0 | 0.00 | 0.00 | 0.00 | 95 | 1024.2 |
| 20260902120230 | 60 | 270 | 0.0 | 0.0 | 0.00 | 0.00 | 0.00 | 95 | 1024.4 |
| 20260902120054 | 60 | 270 | 0.0 | 0.0 | 0.00 | 0.00 | 0.00 | 95 | 1024.1 |
| 20260902115731 | 60 | 270 | 0.0 | 0.0 | 0.00 | 0.00 | 0.00 | 95 | 1024.4 |
| 20260902115229 | 60 | 270 | 0.0 | 0.0 | 0.00 | 0.00 | 0.00 | 95 | 1024.5 |
| 20260902114730 | 60 | 270 | 0.0 | 0.0 | 0.00 | 0.00 | 0.00 | 95 | 1024.3 |
| 20260902114644 | 60 | 270 | 0.0 | 0.0 | 0.00 | 0.00 | 0.00 | 95 | 1024.0 |
| 20260902114230 | 60 | 270 | 0.0 | 0.0 | 0.00 | 0.00 | 0.00 | 95 | 1024.2 |
| 20260902113730 | 60 | 270 | 0.0 | 0.0 | 0.00 | 0.00 | 0.00 | 96 | 1024.3 |
| 20260902113228 | 60 | 270 | 0.0 | 0.0 | 0.00 | 0.00 | 0.00 | 95 | 1024.2 |
| 20260902113049 | 59 | 270 | 0.0 | 0.0 | 0.00 | 0.00 | 0.00 | 96 | 1023.9 |
| 20260902112731 | 60 | 270 | 0.0 | 0.0 | 0.00 | 0.00 | 0.00 | 96 | 1024.3 |
| 20260902112230 | 59 | 270 | 0.0 | 0.0 | 0.00 | 0.00 | 0.00 | 96 | 1024.2 |
| 20260902111731 | 59 | 270 | 0.0 | 0.0 | 0.00 | 0.00 | 0.00 | 96 | 1024.3 |
| 20260902111635 | 59 | 270 | 0.0 | 0.0 | 0.00 | 0.00 | 0.00 | 96 | 1023.9 |
| 20260902111230 | 59 | 270 | 0.0 | 0.0 | 0.00 | 0.00 | 0.00 | 96 | 1024.1 |
| 20260902110228 | 59 | 270 | 0.0 | 0.0 | 0.00 | 0.00 | 0.00 | 96 | 1024.1 |
| 20260902110039 | 58 | 270 | 0.0 | 0.0 | 0.00 | 0.00 | 0.00 | 96 | 1023.7 |
| 20260902105728 | 59 | 270 | 0.0 | 0.0 | 0.00 | 0.00 | 0.00 | 96 | 1024.0 |
| 20260902105230 | 59 | 270 | 0.0 | 0.0 | 0.00 | 0.00 | 0.00 | 96 | 1023.9 |
| 20260902104729 | 58 | 270 | 0.0 | 0.0 | 0.00 | 0.00 | 0.00 | 96 | 1023.9 |
| 20260902104629 | 58 | 270 | 0.0 | 0.0 | 0.00 | 0.00 | 0.00 | 96 | 1023.7 |
| 20260902104230 | 58 | 270 | 0.0 | 0.0 | 0.00 | 0.00 | 0.00 | 96 | 1023.8 |
| 20260902103229 | 59 | 270 | 0.0 | 0.0 | 0.00 | 0.00 | 0.00 | 96 | 1023.5 |
| 20260902103011 | 58 | 270 | 0.0 | 0.0 | 0.00 | 0.00 | 0.00 | 96 | 1023.2 |
| 20260902102213 | 59 | 270 | 0.0 | 0.0 | 0.00 | 0.00 | 0.00 | 96 | 1023.6 |
| 20260902101707 | 59 | 270 | 0.0 | 0.0 | 0.00 | 0.00 | 0.00 | 96 | 1023.6 |
| 20260902101606 | 58 | 270 | 0.0 | 0.0 | 0.00 | 0.00 | 0.00 | 96 | 1023.4 |
| 20260902101208 | 59 | 270 | 0.0 | 0.0 | 0.00 | 0.00 | 0.00 | 96 | 1023.6 |
| 20260902100704 | 59 | 270 | 0.0 | 0.0 | 0.00 | 0.00 | 0.00 | 96 | 1023.6 |
| 20260902100202 | 59 | 270 | 0.0 | 0.0 | 0.00 | 0.00 | 0.00 | 96 | 1023.5 |
| 20260902100154 | 58 | 270 | 0.0 | 0.0 | 0.00 | 0.00 | 0.00 | 96 | 1023.2 |
| 20260902095702 | 59 | 270 | 0.0 | 0.0 | 0.00 | 0.00 | 0.00 | 96 | 1023.5 |
| 20260902095202 | 58 | 270 | 0.0 | 0.0 | 0.00 | 0.00 | 0.00 | 96 | 1023.5 |
| 20260902094702 | 58 | 270 | 0.0 | 0.0 | 0.00 | 0.00 | 0.00 | 96 | 1023.4 |
| 20260902094539 | 58 | 270 | 0.0 | 0.0 | 0.00 | 0.00 | 0.00 | 96 | 1023.2 |
| 20260902094202 | 58 | 270 | 0.0 | 0.0 | 0.00 | 0.00 | 0.00 | 95 | 1023.3 |
| 20260902093702 | 58 | 270 | 0.0 | 0.0 | 0.00 | 0.00 | 0.00 | 95 | 1023.2 |
| 20260902093201 | 58 | 270 | 0.0 | 0.0 | 0.00 | 0.00 | 0.00 | 95 | 1023.4 |
| 20260902093138 | 58 | 270 | 0.0 | 0.0 | 0.00 | 0.00 | 0.00 | 95 | 1023.1 |
| 20260902092701 | 59 | 270 | 0.0 | 0.0 | 0.00 | 0.00 | 0.00 | 96 | 1023.4 |
| 20260902092201 | 59 | 270 | 0.0 | 1.0 | 0.00 | 0.00 | 0.00 | 96 | 1023.4 |
| 20260902091701 | 59 | 270 | 0.0 | 1.0 | 0.00 | 0.00 | 0.00 | 97 | 1023.4 |
| 20260902091530 | 58 | 270 | 0.0 | 1.0 | 0.00 | 0.00 | 0.00 | 97 | 1023.1 |
| 20260902091201 | 59 | 270 | 0.0 | 2.0 | 0.00 | 0.00 | 0.00 | 97 | 1023.4 |
| 20260902090157 | 58 | 270 | 0.0 | 0.0 | 0.00 | 0.00 | 0.00 | 97 | 1023.4 |
| 20260902090118 | 58 | 270 | 0.0 | 0.0 | 0.00 | 0.00 | 0.00 | 97 | 1023.2 |
| 20260902085651 | 58 | 270 | 0.0 | 0.0 | 0.00 | 0.00 | 0.00 | 97 | 1023.6 |
| 20260902085145 | 58 | 270 | 0.0 | 0.0 | 0.00 | 0.00 | 0.00 | 96 | 1023.6 |
| 20260902084638 | 58 | 270 | 0.0 | 0.0 | 0.00 | 0.00 | 0.00 | 96 | 1023.5 |
| 20260902084505 | 57 | 270 | 0.0 | 0.0 | 0.00 | 0.00 | 0.00 | 96 | 1023.3 |
| 20260902084140 | 58 | 270 | 0.0 | 0.0 | 0.00 | 0.00 | 0.00 | 96 | 1023.6 |
| 20260902083638 | 58 | 270 | 0.0 | 0.0 | 0.00 | 0.00 | 0.00 | 96 | 1023.5 |
| 20260902083111 | 57 | 270 | 0.0 | 0.0 | 0.00 | 0.00 | 0.00 | 96 | 1023.2 |
| 20260902082639 | 57 | 270 | 0.0 | 0.0 | 0.00 | 0.00 | 0.00 | 96 | 1023.3 |
| 20260902082136 | 57 | 270 | 0.0 | 0.0 | 0.00 | 0.00 | 0.00 | 96 | 1023.3 |
| 20260902081654 | 57 | 270 | 0.0 | 0.0 | 0.00 | 0.00 | 0.00 | 96 | 1023.1 |
| 20260902081637 | 57 | 270 | 0.0 | 0.0 | 0.00 | 0.00 | 0.00 | 96 | 1023.3 |
| 20260902081138 | 57 | 270 | 0.0 | 0.0 | 0.00 | 0.00 | 0.00 | 96 | 1023.4 |
| 20260902080636 | 58 | 270 | 0.0 | 0.0 | 0.00 | 0.00 | 0.00 | 95 | 1023.4 |
| 20260902080138 | 58 | 270 | 0.0 | 0.0 | 0.00 | 0.00 | 0.00 | 95 | 1023.3 |
| 20260902080056 | 57 | 270 | 0.0 | 0.0 | 0.00 | 0.00 | 0.00 | 95 | 1023.1 |
| 20260902075635 | 58 | 270 | 0.0 | 0.0 | 0.00 | 0.00 | 0.00 | 95 | 1023.1 |
| 20260902074643 | 58 | 270 | 0.0 | 0.0 | 0.00 | 0.00 | 0.00 | 96 | 1022.7 |
| 20260902074636 | 58 | 270 | 0.0 | 0.0 | 0.00 | 0.00 | 0.00 | 96 | 1023.0 |
| 20260902073631 | 58 | 270 | 0.0 | 0.0 | 0.00 | 0.00 | 0.00 | 95 | 1023.0 |
| 20260902073130 | 58 | 270 | 0.0 | 0.0 | 0.00 | 0.00 | 0.00 | 95 | 1023.0 |
| 20260902073025 | 57 | 270 | 0.0 | 0.0 | 0.00 | 0.00 | 0.00 | 95 | 1022.7 |
| 20260902072631 | 58 | 270 | 0.0 | 0.0 | 0.00 | 0.00 | 0.00 | 95 | 1023.0 |
| 20260902072130 | 58 | 270 | 0.0 | 0.0 | 0.00 | 0.00 | 0.00 | 95 | 1023.0 |
| 20260902071633 | 58 | 270 | 0.0 | 0.0 | 0.00 | 0.00 | 0.00 | 95 | 1022.7 |
| 20260902071629 | 58 | 270 | 0.0 | 0.0 | 0.00 | 0.00 | 0.00 | 95 | 1023.0 |
| 20260902071130 | 58 | 270 | 0.0 | 0.0 | 0.00 | 0.00 | 0.00 | 95 | 1023.0 |
| 20260902070631 | 59 | 270 | 0.0 | 0.0 | 0.00 | 0.00 | 0.00 | 95 | 1023.0 |
| 20260902070130 | 59 | 270 | 0.0 | 0.0 | 0.00 | 0.00 | 0.00 | 94 | 1023.0 |
| 20260902070007 | 58 | 270 | 0.0 | 0.0 | 0.00 | 0.00 | 0.00 | 94 | 1022.7 |
| 20260902065630 | 59 | 270 | 0.0 | 0.0 | 0.00 | 0.00 | 0.00 | 94 | 1022.9 |
| 20260902065130 | 59 | 270 | 0.0 | 0.0 | 0.00 | 0.00 | 0.00 | 95 | 1023.0 |
| 20260902064629 | 59 | 270 | 0.0 | 0.0 | 0.00 | 0.00 | 0.00 | 95 | 1023.0 |
| 20260902064612 | 59 | 270 | 0.0 | 0.0 | 0.00 | 0.00 | 0.00 | 95 | 1022.8 |
| 20260902064129 | 59 | 270 | 0.0 | 0.0 | 0.00 | 0.00 | 0.00 | 95 | 1023.0 |
| 20260902063630 | 59 | 270 | 0.0 | 0.0 | 0.00 | 0.00 | 0.00 | 94 | 1023.0 |
| 20260902063002 | 59 | 270 | 0.0 | 0.0 | 0.00 | 0.00 | 0.00 | 94 | 1022.8 |
| 20260902062128 | 60 | 270 | 0.0 | 0.0 | 0.00 | 0.00 | 0.00 | 94 | 1023.0 |
| 20260902061628 | 60 | 270 | 0.0 | 0.0 | 0.00 | 0.00 | 0.00 | 94 | 1023.0 |
| 20260902061557 | 59 | 270 | 0.0 | 0.0 | 0.00 | 0.00 | 0.00 | 94 | 1022.8 |
| 20260902060630 | 60 | 270 | 0.0 | 0.0 | 0.00 | 0.00 | 0.00 | 94 | 1022.9 |
| 20260902060140 | 60 | 270 | 0.0 | 0.0 | 0.00 | 0.00 | 0.00 | 94 | 1022.8 |
| 20260902060129 | 60 | 270 | 0.0 | 0.0 | 0.00 | 0.00 | 0.00 | 94 | 1023.0 |
| 20260902055626 | 60 | 270 | 0.0 | 0.0 | 0.00 | 0.00 | 0.00 | 94 | 1022.9 |
| 20260902054623 | 60 | 270 | 0.0 | 0.0 | 0.00 | 0.00 | 0.00 | 94 | 1022.9 |
| 20260902054542 | 60 | 270 | 0.0 | 0.0 | 0.00 | 0.00 | 0.00 | 94 | 1022.7 |
| 20260902054120 | 61 | 270 | 0.0 | 0.0 | 0.00 | 0.00 | 0.00 | 94 | 1022.8 |
| 20260902053132 | 60 | 270 | 0.0 | 0.0 | 0.00 | 0.00 | 0.00 | 94 | 1022.5 |
| 20260902053117 | 61 | 270 | 0.0 | 0.0 | 0.00 | 0.00 | 0.00 | 94 | 1022.7 |
| 20260902052618 | 61 | 270 | 0.0 | 0.0 | 0.00 | 0.00 | 0.00 | 94 | 1022.6 |
| 20260902051615 | 60 | 270 | 0.0 | 0.0 | 0.00 | 0.00 | 0.00 | 94 | 1022.7 |
| 20260902051529 | 60 | 270 | 0.0 | 0.0 | 0.00 | 0.00 | 0.00 | 94 | 1022.4 |
| 20260902051112 | 60 | 270 | 0.0 | 0.0 | 0.00 | 0.00 | 0.00 | 94 | 1022.6 |
| 20260902050610 | 60 | 270 | 0.0 | 0.0 | 0.00 | 0.00 | 0.00 | 94 | 1022.6 |
| 20260902050122 | 60 | 270 | 0.0 | 0.0 | 0.00 | 0.00 | 0.00 | 94 | 1022.3 |
| 20260902050109 | 60 | 270 | 0.0 | 0.0 | 0.00 | 0.00 | 0.00 | 94 | 1022.5 |
| 20260902045608 | 60 | 270 | 0.0 | 0.0 | 0.00 | 0.00 | 0.00 | 94 | 1022.4 |
| 20260902045106 | 60 | 270 | 0.0 | 0.0 | 0.00 | 0.00 | 0.00 | 94 | 1022.4 |
| 20260902044606 | 61 | 270 | 0.0 | 0.0 | 0.00 | 0.00 | 0.00 | 93 | 1022.4 |
| 20260902044526 | 60 | 270 | 0.0 | 0.0 | 0.00 | 0.00 | 0.00 | 93 | 1022.1 |
| 20260902044102 | 61 | 270 | 0.0 | 0.0 | 0.00 | 0.00 | 0.00 | 93 | 1022.3 |
| 20260902043603 | 61 | 270 | 0.0 | 0.0 | 0.00 | 0.00 | 0.00 | 93 | 1022.2 |
| 20260902043111 | 61 | 270 | 0.0 | 0.0 | 0.00 | 0.00 | 0.00 | 92 | 1021.7 |
| 20260902043101 | 61 | 270 | 0.0 | 0.0 | 0.00 | 0.00 | 0.00 | 92 | 1021.9 |
| 20260902042602 | 62 | 270 | 0.0 | 0.0 | 0.00 | 0.00 | 0.00 | 92 | 1021.9 |
| 20260902042103 | 62 | 270 | 0.0 | 0.0 | 0.00 | 0.00 | 0.00 | 92 | 1021.8 |
| 20260902041503 | 62 | 270 | 0.0 | 2.0 | 0.00 | 0.00 | 0.00 | 92 | 1021.4 |
| 20260902041103 | 62 | 270 | 0.0 | 2.0 | 0.00 | 0.00 | 0.00 | 92 | 1021.6 |
| 20260902040601 | 62 | 270 | 0.0 | 0.0 | 0.00 | 0.00 | 0.00 | 92 | 1021.8 |
| 20260902040103 | 62 | 270 | 0.0 | 0.0 | 0.00 | 0.00 | 0.00 | 91 | 1021.8 |
| 20260902040044 | 62 | 270 | 0.0 | 0.0 | 0.00 | 0.00 | 0.00 | 91 | 1021.6 |
| 20260902035602 | 62 | 270 | 0.0 | 1.0 | 0.00 | 0.00 | 0.00 | 91 | 1021.8 |
| 20260902035103 | 63 | 270 | 0.0 | 1.0 | 0.00 | 0.00 | 0.00 | 91 | 1021.8 |
| 20260902034635 | 62 | 270 | 0.0 | 2.0 | 0.00 | 0.00 | 0.00 | 91 | 1021.5 |
| 20260902034602 | 63 | 270 | 0.0 | 2.0 | 0.00 | 0.00 | 0.00 | 91 | 1021.8 |
| 20260902034103 | 63 | 270 | 0.0 | 3.0 | 0.00 | 0.00 | 0.00 | 91 | 1021.8 |
| 20260902033101 | 63 | 270 | 0.0 | 0.0 | 0.00 | 0.00 | 0.00 | 91 | 1021.6 |
| 20260902033031 | 62 | 270 | 0.0 | 0.0 | 0.00 | 0.00 | 0.00 | 91 | 1021.5 |
| 20260902032602 | 63 | 270 | 0.0 | 1.0 | 0.00 | 0.00 | 0.00 | 91 | 1021.6 |
| 20260902032103 | 63 | 270 | 0.0 | 2.0 | 0.00 | 0.00 | 0.00 | 91 | 1021.6 |
| 20260902031627 | 63 | 270 | 0.0 | 2.0 | 0.00 | 0.00 | 0.00 | 91 | 1021.4 |
| 20260902031602 | 63 | 270 | 0.0 | 2.0 | 0.00 | 0.00 | 0.00 | 91 | 1021.6 |
| 20260902031101 | 63 | 270 | 0.0 | 1.0 | 0.00 | 0.00 | 0.00 | 91 | 1021.8 |
| 20260902030601 | 63 | 270 | 0.0 | 1.0 | 0.00 | 0.00 | 0.00 | 91 | 1021.8 |
| 20260902030020 | 63 | 270 | 0.0 | 1.0 | 0.00 | 0.00 | 0.00 | 91 | 1021.4 |
| 20260902025602 | 63 | 270 | 0.0 | 1.0 | 0.00 | 0.00 | 0.00 | 91 | 1021.5 |
| 20260902025103 | 63 | 270 | 0.0 | 0.0 | 0.00 | 0.00 | 0.00 | 91 | 1021.6 |
| 20260902024101 | 63 | 270 | 0.0 | 0.0 | 0.00 | 0.00 | 0.00 | 91 | 1021.5 |
| 20260902023601 | 63 | 270 | 0.0 | 0.0 | 0.00 | 0.00 | 0.00 | 91 | 1021.4 |
| 20260902023102 | 63 | 270 | 0.0 | 0.0 | 0.00 | 0.00 | 0.00 | 90 | 1021.4 |
| 20260902023013 | 63 | 270 | 0.0 | 0.0 | 0.00 | 0.00 | 0.00 | 90 | 1021.2 |
| 20260902022602 | 63 | 270 | 0.0 | 1.0 | 0.00 | 0.00 | 0.00 | 90 | 1021.4 |
| 20260902022102 | 63 | 270 | 0.0 | 1.0 | 0.00 | 0.00 | 0.00 | 90 | 1021.3 |
| 20260902021610 | 63 | 270 | 0.0 | 1.0 | 0.00 | 0.00 | 0.00 | 90 | 1021.0 |
| 20260902021602 | 63 | 270 | 0.0 | 1.0 | 0.00 | 0.00 | 0.00 | 90 | 1021.2 |
| 20260902021102 | 63 | 270 | 0.0 | 1.0 | 0.00 | 0.00 | 0.00 | 89 | 1021.2 |
| 20260902020601 | 63 | 270 | 0.0 | 0.0 | 0.00 | 0.00 | 0.00 | 89 | 1021.3 |
| 20260902020011 | 63 | 270 | 0.0 | 0.0 | 0.00 | 0.00 | 0.00 | 89 | 1021.2 |
| 20260902015101 | 64 | 270 | 0.0 | 0.0 | 0.00 | 0.00 | 0.00 | 89 | 1021.5 |
| 20260902014608 | 63 | 270 | 0.0 | 0.0 | 0.00 | 0.00 | 0.00 | 88 | 1021.3 |
| 20260902014601 | 64 | 270 | 0.0 | 0.0 | 0.00 | 0.00 | 0.00 | 88 | 1021.5 |
| 20260902013601 | 64 | 270 | 0.0 | 0.0 | 0.00 | 0.00 | 0.00 | 87 | 1021.3 |
| 20260902013103 | 64 | 270 | 0.0 | 2.0 | 0.00 | 0.00 | 0.00 | 86 | 1021.4 |
| 20260902013007 | 64 | 270 | 0.0 | 2.0 | 0.00 | 0.00 | 0.00 | 86 | 1021.2 |
| 20260902012601 | 64 | 270 | 0.0 | 2.0 | 0.00 | 0.00 | 0.00 | 86 | 1021.4 |
| 20260902012100 | 65 | 270 | 0.0 | 2.0 | 0.00 | 0.00 | 0.00 | 86 | 1021.2 |
| 20260902011609 | 64 | 270 | 0.0 | 3.0 | 0.00 | 0.00 | 0.00 | 86 | 1020.9 |
| 20260902011602 | 65 | 270 | 1.0 | 3.0 | 0.00 | 0.00 | 0.00 | 86 | 1021.1 |
| 20260902011101 | 65 | 270 | 1.0 | 3.0 | 0.00 | 0.00 | 0.00 | 85 | 1021.0 |
| 20260902010603 | 65 | 270 | 1.0 | 4.0 | 0.00 | 0.00 | 0.00 | 85 | 1021.2 |
| 20260902010003 | 65 | 270 | 1.0 | 4.0 | 0.00 | 0.00 | 0.00 | 84 | 1020.9 |
| 20260902005601 | 65 | 270 | 1.0 | 4.0 | 0.00 | 0.00 | 0.00 | 84 | 1021.2 |
| 20260902005101 | 65 | 270 | 1.0 | 4.0 | 0.00 | 0.00 | 0.00 | 84 | 1021.3 |
| 20260902004608 | 65 | 270 | 0.0 | 3.0 | 0.00 | 0.00 | 0.00 | 84 | 1021.1 |
| 20260902004601 | 65 | 270 | 1.0 | 3.0 | 0.00 | 0.00 | 0.00 | 84 | 1021.3 |
| 20260902004102 | 65 | 270 | 0.0 | 2.0 | 0.00 | 0.00 | 0.00 | 83 | 1021.2 |
| 20260902003601 | 66 | 270 | 0.0 | 2.0 | 0.00 | 0.00 | 0.00 | 83 | 1021.0 |
| 20260902003101 | 66 | 270 | 1.0 | 4.0 | 0.00 | 0.00 | 0.00 | 83 | 1020.8 |
| 20260902003005 | 65 | 270 | 0.0 | 4.0 | 0.00 | 0.00 | 0.00 | 82 | 1020.7 |
| 20260902002602 | 66 | 270 | 1.0 | 4.0 | 0.00 | 0.00 | 0.00 | 82 | 1020.8 |
| 20260902002101 | 66 | 270 | 1.0 | 3.0 | 0.00 | 0.00 | 0.00 | 82 | 1020.7 |
| 20260902001601 | 66 | 270 | 0.0 | 3.0 | 0.00 | 0.00 | 0.00 | 82 | 1020.8 |
| 20260902001551 | 66 | 270 | 0.0 | 3.0 | 0.00 | 0.00 | 0.00 | 82 | 1020.7 |
| 20260902001100 | 66 | 270 | 0.0 | 3.0 | 0.00 | 0.00 | 0.00 | 82 | 1020.7 |
| 20260902000602 | 66 | 270 | 0.0 | 3.0 | 0.00 | 0.00 | 0.00 | 82 | 1020.7 |
| 20260902000136 | 66 | 270 | 1.0 | 3.0 | 0.00 | 0.00 | 0.00 | 82 | 1020.4 |
| 20260901234601 | 67 | 270 | 1.0 | 5.0 | 0.00 | 0.00 | 0.00 | 80 | 1020.5 |
| 20260901234547 | 66 | 270 | 0.0 | 5.0 | 0.00 | 0.00 | 0.00 | 80 | 1020.4 |
| 20260901234103 | 67 | 270 | 1.0 | 5.0 | 0.00 | 0.00 | 0.00 | 80 | 1020.5 |
| 20260901233600 | 66 | 270 | 1.0 | 3.0 | 0.00 | 0.00 | 0.00 | 79 | 1020.5 |
| 20260901233131 | 66 | 270 | 1.0 | 3.0 | 0.00 | 0.00 | 0.00 | 79 | 1020.2 |
| 20260901233102 | 66 | 270 | 1.0 | 3.0 | 0.00 | 0.00 | 0.00 | 79 | 1020.4 |
| 20260901232101 | 64 | 270 | 1.0 | 2.0 | 0.00 | 0.00 | 0.00 | 77 | 1020.3 |
| 20260901231601 | 64 | 270 | 1.0 | 2.0 | 0.00 | 0.00 | 0.00 | 77 | 1020.3 |
| 20260901231534 | 64 | 270 | 0.0 | 2.0 | 0.00 | 0.00 | 0.00 | 77 | 1020.1 |
| 20260901230601 | 64 | 270 | 1.0 | 2.0 | 0.00 | 0.00 | 0.00 | 79 | 1020.2 |
| 20260901230131 | 64 | 270 | 0.0 | 1.0 | 0.00 | 0.00 | 0.00 | 81 | 1020.1 |
| 20260901225102 | 65 | 270 | 1.0 | 1.0 | 0.00 | 0.00 | 0.00 | 80 | 1020.2 |
| 20260901224601 | 65 | 270 | 1.0 | 1.0 | 0.00 | 0.00 | 0.00 | 82 | 1020.2 |
| 20260901224523 | 64 | 270 | 0.0 | 1.0 | 0.00 | 0.00 | 0.00 | 79 | 1020.0 |
| 20260901224101 | 65 | 270 | 1.0 | 1.0 | 0.00 | 0.00 | 0.00 | 81 | 1020.2 |
| 20260901223117 | 65 | 270 | 0.0 | 1.0 | 0.00 | 0.00 | 0.00 | 78 | 1020.1 |
| 20260901223102 | 65 | 270 | 0.0 | 1.0 | 0.00 | 0.00 | 0.00 | 78 | 1020.3 |
| 20260901222602 | 66 | 270 | 0.0 | 1.0 | 0.00 | 0.00 | 0.00 | 77 | 1020.2 |
| 20260901222103 | 66 | 270 | 0.0 | 0.0 | 0.00 | 0.00 | 0.00 | 80 | 1020.1 |
| 20260901221601 | 67 | 270 | 0.0 | 0.0 | 0.00 | 0.00 | 0.00 | 77 | 1020.2 |
| 20260901221512 | 67 | 270 | 0.0 | 0.0 | 0.00 | 0.00 | 0.00 | 78 | 1019.9 |
| 20260901221102 | 68 | 270 | 0.0 | 0.0 | 0.00 | 0.00 | 0.00 | 75 | 1020.1 |
| 20260901215603 | 70 | 270 | 0.0 | 1.0 | 0.00 | 0.00 | 0.00 | 67 | 1020.1 |
| 20260901215104 | 71 | 270 | 0.0 | 1.0 | 0.00 | 0.00 | 0.00 | 66 | 1020.0 |
| 20260901214656 | 72 | 270 | 0.0 | 1.0 | 0.00 | 0.00 | 0.00 | 62 | 1019.9 |
| 20260901214602 | 72 | 270 | 0.0 | 2.0 | 0.00 | 0.00 | 0.00 | 62 | 1020.1 |
| 20260901214101 | 73 | 270 | 0.0 | 2.0 | 0.00 | 0.00 | 0.00 | 58 | 1019.9 |
| 20260901213601 | 73 | 270 | 0.0 | 2.0 | 0.00 | 0.00 | 0.00 | 60 | 1019.9 |
| 20260901213101 | 73 | 270 | 0.0 | 0.0 | 0.00 | 0.00 | 0.00 | 62 | 1019.8 |
| 20260901213055 | 73 | 270 | 0.0 | 0.0 | 0.00 | 0.00 | 0.00 | 62 | 1019.6 |
| 20260901212600 | 73 | 270 | 0.0 | 0.0 | 0.00 | 0.00 | 0.00 | 63 | 1019.8 |
| 20260901212100 | 74 | 270 | 0.0 | 1.0 | 0.00 | 0.00 | 0.00 | 61 | 1019.7 |
| 20260901211641 | 73 | 270 | 0.0 | 1.0 | 0.00 | 0.00 | 0.00 | 58 | 1019.5 |
| 20260901211603 | 74 | 270 | 0.0 | 1.0 | 0.00 | 0.00 | 0.00 | 58 | 1019.7 |
| 20260901211102 | 74 | 271 | 0.0 | 1.0 | 0.00 | 0.00 | 0.00 | 56 | 1019.7 |
| 20260901210601 | 74 | 271 | 0.0 | 2.0 | 0.00 | 0.00 | 0.00 | 59 | 1019.6 |
| 20260901210101 | 74 | 271 | 0.0 | 2.0 | 0.00 | 0.00 | 0.00 | 59 | 1019.6 |
| 20260901210035 | 74 | 271 | 0.0 | 2.0 | 0.00 | 0.00 | 0.00 | 59 | 1019.4 |
| 20260901205103 | 73 | 271 | 0.0 | 3.0 | 0.00 | 0.00 | 0.00 | 64 | 1019.6 |
| 20260901204630 | 72 | 271 | 1.0 | 3.0 | 0.00 | 0.00 | 0.00 | 58 | 1019.4 |
| 20260901204601 | 73 | 271 | 0.0 | 3.0 | 0.00 | 0.00 | 0.00 | 58 | 1019.6 |
| 20260901204102 | 72 | 271 | 0.0 | 1.0 | 0.00 | 0.00 | 0.00 | 58 | 1019.6 |
| 20260901203601 | 72 | 271 | 0.0 | 1.0 | 0.00 | 0.00 | 0.00 | 64 | 1019.5 |
| 20260901203101 | 72 | 271 | 0.0 | 1.0 | 0.00 | 0.00 | 0.00 | 63 | 1019.5 |
| 20260901203046 | 72 | 271 | 0.0 | 1.0 | 0.00 | 0.00 | 0.00 | 63 | 1019.3 |
| 20260901201628 | 74 | 271 | 0.0 | 1.0 | 0.00 | 0.00 | 0.00 | 58 | 1019.2 |
| 20260901201600 | 74 | 271 | 0.0 | 1.0 | 0.00 | 0.00 | 0.00 | 58 | 1019.5 |
| 20260901201101 | 75 | 271 | 0.0 | 1.0 | 0.00 | 0.00 | 0.00 | 59 | 1019.6 |
| 20260901200601 | 74 | 271 | 0.0 | 2.0 | 0.00 | 0.00 | 0.00 | 58 | 1019.5 |
| 20260901200029 | 74 | 271 | 0.0 | 2.0 | 0.00 | 0.00 | 0.00 | 53 | 1019.2 |
| 20260901194622 | 73 | 271 | 0.0 | 2.0 | 0.00 | 0.00 | 0.00 | 54 | 1019.4 |
| 20260901194602 | 74 | 271 | 0.0 | 2.0 | 0.00 | 0.00 | 0.00 | 58 | 1019.6 |
| 20260901194101 | 74 | 271 | 0.0 | 2.0 | 0.00 | 0.00 | 0.00 | 59 | 1019.7 |
| 20260901193602 | 73 | 271 | 0.0 | 3.0 | 0.00 | 0.00 | 0.00 | 54 | 1019.7 |
| 20260901193011 | 73 | 271 | 0.0 | 3.0 | 0.00 | 0.00 | 0.00 | 55 | 1019.5 |
| 20260901191609 | 73 | 271 | 0.0 | 4.0 | 0.00 | 0.00 | 0.00 | 56 | 1019.5 |
| 20260901191602 | 74 | 271 | 1.0 | 4.0 | 0.00 | 0.00 | 0.00 | 56 | 1019.7 |
| 20260901190601 | 75 | 271 | 1.0 | 5.0 | 0.00 | 0.00 | 0.00 | 52 | 1019.7 |
| 20260901185602 | 75 | 271 | 0.0 | 2.0 | 0.00 | 0.00 | 0.00 | 54 | 1019.8 |
| 20260901185102 | 75 | 271 | 1.0 | 4.0 | 0.00 | 0.00 | 0.00 | 57 | 1019.9 |
| 20260901184602 | 74 | 271 | 1.0 | 4.0 | 0.00 | 0.00 | 0.00 | 53 | 1019.9 |
| 20260901184555 | 74 | 271 | 1.0 | 4.0 | 0.00 | 0.00 | 0.00 | 53 | 1019.6 |
| 20260901184102 | 75 | 271 | 1.0 | 3.0 | 0.00 | 0.00 | 0.00 | 57 | 1019.8 |
| 20260901183145 | 73 | 271 | 0.0 | 2.0 | 0.00 | 0.00 | 0.00 | 55 | 1019.6 |
| 20260901183102 | 74 | 271 | 0.0 | 2.0 | 0.00 | 0.00 | 0.00 | 55 | 1019.9 |
| 20260901182602 | 74 | 271 | 0.0 | 1.0 | 0.00 | 0.00 | 0.00 | 55 | 1019.9 |
| 20260901181602 | 73 | 271 | 0.0 | 1.0 | 0.00 | 0.00 | 0.00 | 59 | 1019.9 |
| 20260901181541 | 73 | 271 | 0.0 | 1.0 | 0.00 | 0.00 | 0.00 | 59 | 1019.7 |
| 20260901181059 | 73 | 271 | 1.0 | 4.0 | 0.00 | 0.00 | 0.00 | 55 | 1019.9 |
| 20260901180559 | 73 | 271 | 1.0 | 4.0 | 0.00 | 0.00 | 0.00 | 55 | 1019.8 |
| 20260901180138 | 73 | 271 | 0.0 | 3.0 | 0.00 | 0.00 | 0.00 | 54 | 1019.6 |
| 20260901180058 | 73 | 271 | 1.0 | 3.0 | 0.00 | 0.00 | 0.00 | 55 | 1019.8 |
| 20260901175555 | 73 | 271 | 1.0 | 3.0 | 0.00 | 0.00 | 0.00 | 56 | 1019.8 |
| 20260901175055 | 73 | 271 | 1.0 | 5.0 | 0.00 | 0.00 | 0.00 | 55 | 1019.7 |
| 20260901174555 | 73 | 271 | 1.0 | 5.0 | 0.00 | 0.00 | 0.00 | 55 | 1019.7 |
| 20260901174537 | 72 | 271 | 1.0 | 5.0 | 0.00 | 0.00 | 0.00 | 55 | 1019.4 |
| 20260901174054 | 73 | 271 | 1.0 | 4.0 | 0.00 | 0.00 | 0.00 | 57 | 1019.6 |